Regional Weather Roundup
Issued by NWS

Home | Current Version | Previous Version | Graphics & Text | Print | Product List | Glossary On
Versions: 1 2 3 4 5 6 7 8 9 10 11 12 13 14 15 16 17 18 19 20 21 22 23 24 25 26 27 28 29 30 31 32 33 34 35 36 37 38 39 40 41 42 43 44 45 46 47 48 49 50
000
ASUS43 KIND 281409
RWRIN

WEATHER ROUNDUP FOR INDIANA
NATIONAL WEATHER SERVICE INDIANAPOLIS IN
1000 AM EDT TUE MAR 28 2017

NOTE: "FAIR" INDICATES FEW OR NO CLOUDS BELOW 12,000 FEET WITH NO
SIGNIFICANT WEATHER AND/OR OBSTRUCTIONS TO VISIBILITY.

* - STATION DOES NOT REPORT WEATHER SUCH AS PRECIPITATION OR FOG.

+ - STATION NOT QUALITY CONTROLLED BY THE NATIONAL WEATHER SERVICE.
    USE DATA WITH CAUTION...ESPECIALLY DEWPOINT AND RELATIVE
    HUMIDITY OBSERVATIONS.

INZ001>003-010>013-019-020-281500-
NORTHWEST INDIANA

CITY           SKY/WX    TMP DP  RH WIND       PRES   REMARKS
GARY /AIRPORT/ CLOUDY    41  37  87 N17       30.10R
KNOX *+        CLOUDY    41  28  60 N8        30.06R
LA PORTE +     CLOUDY    39  37  93 N10       30.07R
MICHIGAN CITY+ CLOUDY    37  37 100 N9        30.08R
MONTICELLO +   CLOUDY    42  39  89 N6        30.05R
RENSSELAER +   CLOUDY    43  39  87 N13       30.06S
VALPARAISO     CLOUDY    41  38  89 N8        30.08R

$$

LMZ046-743>745-281500-
SOUTHERN LAKE MICHIGAN

STATION/POSITION TIME  TEMP    WIND        PRES    WAVE
                       AIR SEA DIR/SP/G            HT
                 (UTC) (F)     (DEG/KT/KT) (MB)    (FT)
BURNS HARBOR     1404   39     360/  8/ 16 1019.3
MICHIGAN CITY    1340   38     360/ 13/ 14   N/A

$$

INZ004-005-014>016-021>024-281500-
NORTH CENTRAL INDIANA

CITY           SKY/WX    TMP DP  RH WIND       PRES   REMARKS
ELKHART        CLOUDY    43  39  87 NW3       30.04R FOG
GOSHEN         CLOUDY    45  41  86 N12       30.03R
LOGANSPORT +   CLOUDY    45  41  87 N8        30.04S
PERU/GRISSOM   CLOUDY    46  46 100 NE8       30.02R
ROCHESTER +    CLOUDY    48  45  87 N7        30.04R
SOUTH BEND     CLOUDY    41  39  93 N8        30.05R FOG
WARSAW +       CLOUDY    45  41  87 N6        30.03R

$$

INZ006>009-017-018-025>027-281500-
NORTHEAST INDIANA

CITY           SKY/WX    TMP DP  RH WIND       PRES   REMARKS
ANGOLA *+      CLOUDY    45  34  65 VRB6      30.02R
AUBURN +       CLOUDY    46  41  81 N7        30.03R
FORT WAYNE     CLOUDY    48  43  82 N13       30.01R
HUNTINGTON +   CLOUDY    47  45  91 N12       30.02R
KENDALLVILLE + CLOUDY    46  42  88 N10       30.02R

$$

INZ028-029-035-036-043>045-051>053-281500-
WEST CENTRAL INDIANA

CITY           SKY/WX    TMP DP  RH WIND       PRES   REMARKS
CRAWFORDSVL +  CLOUDY    43  43 100 N9        30.04R
GREENCASTLE +  CLOUDY    46  45  93 N8        30.03R
LAFAYETTE      CLOUDY    42  41  96 N7        30.06R
TERRE HAUTE    CLOUDY    49  44  83 NW9       30.04R

$$

INZ030>032-037>040-046>048-054>057-064-065-281500-
CENTRAL INDIANA

CITY           SKY/WX    TMP DP  RH WIND       PRES   REMARKS
ANDERSON       CLOUDY    50  48  93 N8        30.01R FOG
CP ATTERBURY + CLOUDY    54  50  87 N8        30.00R
FISHERS *+     CLOUDY    48  48 100 N5        30.01R
FRANKFORT +    CLOUDY    46  44  91 N10       30.05R FOG
GREENWOOD *+   CLOUDY    52  50  92 N8        30.00R
INDIANAPOLIS   CLOUDY    50  47  89 N12       30.00R
-EAGLE CREEK   CLOUDY    50  45  83 N9        30.00R
KOKOMO +       CLOUDY    46  44  93 N12       30.04R
MARION +       CLOUDY    47  45  90 N10       30.03R
MT COMFORT *+  CLOUDY    50  48  93 N12       30.01R
SHELBYVILLE    CLOUDY    54  49  83 N14       29.99R
ZIONSVILLE +   CLOUDY    46  45  94 N13       30.03R

$$

INZ033-034-041-042-049-050-058-059-281500-
EAST CENTRAL INDIANA

CITY           SKY/WX    TMP DP  RH WIND       PRES   REMARKS
MUNCIE         CLOUDY    51  48  89 N13       30.00R FOG
RICHMOND +     CLOUDY    50  50 100 N10       29.97R FOG

$$

INZ060-061-067>069-081>083-085>088-281500-
SOUTHWEST INDIANA

CITY           SKY/WX    TMP DP  RH WIND       PRES   REMARKS
EVANSVILLE     CLOUDY    55  51  86 N7        30.03R FOG
HUNTINGBURG *+ CLOUDY    55  53  93 N8        30.00R FOG
WASHINGTON +   CLOUDY    52  50  93 MISG      30.01R FOG

$$

INZ062-063-066-070>080-084-089>092-281500-
SOUTH CENTRAL AND SOUTHEAST INDIANA

CITY           SKY/WX    TMP DP  RH WIND       PRES   REMARKS
BEDFORD +      CLOUDY    55  52  88 N5        29.98R FOG
BLOOMINGTON    CLOUDY    51  49  92 N7        30.00R FOG
MADISON *+     CLOUDY    55  52  88 N7        29.99R
NORTH VERNON + CLOUDY   N/A N/A N/A NW10      29.98R
SEYMOUR +      CLOUDY    57  52  82 N9        29.98R

$$





USA.gov is the U.S. government's official web portal to all federal, state and local government web resources and services.